Weather History for Durango, CO

Change the Weather History Date:

Thursday, June 19, 2014

  Actual Average Record
Temperature  
Mean Temperature 57 °F 63 °F  
Max Temperature 80 °F 83 °F 94 °F (1989)
Min Temperature 34 °F 44 °F 33 °F (1975)
Degree Days  
Heating Degree Days 8 3  
Month to date heating degree days 78 96  
Since 1 June heating degree days 78 96  
Since 1 July heating degree days 6831 7104  
Cooling Degree Days 0 1  
Month to date cooling degree days 1 12  
Year to date cooling degree days 6 13  
Since 1 June cooling degree days 1 12  
Growing Degree Days 6 (Base 50)    
Moisture  
Dew Point 18 °F    
Average Humidity 38    
Maximum Humidity 69    
Minimum Humidity 7    
Precipitation  
Precipitation 0.00 in 0.03 in 0.11 in (2003)
Month to date precipitation T 0.30  
Year to date precipitation 2.40 5.73  
Sea Level Pressure  
Sea Level Pressure 30.00 in    
Wind  
Wind Speed 7 mph (West)    
Max Wind Speed 22 mph    
Max Gust Speed 32 mph    
Visibility 10 miles    
Events      
T = Trace of Precipitation, MM = Missing Value Source: NWS Daily Summary

Daily Weather History Graph

Daily Weather History Graph

Search for Another Location

Airport:

Trip Planner

Search our weather history database for the weather conditions in past years. The results will help you decide how hot, cold, wet, or windy it might be!

Date:

Astronomy

Jun. 19, 2014 Rise Set
Actual Time 5:50 AM MDT 8:34 PM MDT
Civil Twilight 5:19 AM MDT 9:04 PM MDT
Nautical Twilight 4:41 AM MDT 9:43 PM MDT
Astronomical Twilight 3:57 AM MDT 10:27 PM MDT
Moon 12:48 AM MDT (6/19) 1:15 PM MDT (6/19)
Length of Visible Light 15h 44m
Length of Day
14h 43m
Waning Gibbous, 50% of the Moon is Illuminated
Jun 19
Waning Gibbous
Jun 19
Last Quarter
Jun 27
New
Jul 5
First Quarter
Jul 12
Full

Hourly Weather History & Observations

Time (MDT) Temp. Windchill Dew Point Humidity Pressure Visibility Wind Dir Wind Speed Gust Speed Precip Events Conditions
1:53 AM 46.9 °F - 25.0 °F 42% 29.90 in 10.0 mi North 4.6 mph - N/A   Clear
2:53 AM 39.0 °F 34.0 °F 24.1 °F 55% 29.96 in 10.0 mi NE 6.9 mph - N/A   Clear
4:53 AM 37.0 °F 32.4 °F 24.1 °F 59% 29.99 in 10.0 mi ENE 5.8 mph - N/A   Clear
5:53 AM 34.0 °F 29.8 °F 25.0 °F 70% 30.03 in 10.0 mi NNE 4.6 mph - N/A   Clear
6:53 AM 42.1 °F - 25.0 °F 51% 30.02 in 10.0 mi Calm Calm - N/A   Clear
7:53 AM 52.0 °F - 27.0 °F 38% 30.01 in 10.0 mi Calm Calm - N/A   Clear
9:53 AM 66.0 °F - 25.0 °F 21% 30.02 in 10.0 mi Calm Calm - N/A   Clear
10:53 AM 71.1 °F - 19.0 °F 14% 30.02 in 10.0 mi SSW 8.1 mph - N/A   Clear
11:53 AM 73.9 °F - 18.0 °F 12% 30.03 in 10.0 mi Variable 3.5 mph 23.0 mph N/A   Clear
12:53 PM 75.9 °F - 17.1 °F 11% 30.02 in 10.0 mi SSW 12.7 mph 25.3 mph N/A   Clear
1:53 PM 77.0 °F - 16.0 °F 10% 30.01 in 10.0 mi WSW 12.7 mph 25.3 mph N/A   Clear
2:53 PM 77.0 °F - 15.1 °F 10% 30.03 in 10.0 mi SW 11.5 mph 20.7 mph N/A   Clear
3:53 PM 79.0 °F - 12.9 °F 8% 29.99 in 10.0 mi WSW 13.8 mph 25.3 mph N/A   Clear
4:53 PM 79.0 °F - 10.9 °F 8% 30.01 in 10.0 mi WSW 16.1 mph 21.9 mph N/A   Clear
5:53 PM 79.0 °F - 14.0 °F 9% 30.01 in 10.0 mi WSW 19.6 mph 32.2 mph N/A   Clear
6:53 PM 75.9 °F - 12.0 °F 9% 30.00 in 10.0 mi West 13.8 mph - N/A   Clear
7:53 PM 73.0 °F - 9.0 °F 8% 29.99 in 10.0 mi West 12.7 mph 20.7 mph N/A   Clear
8:53 PM 68.0 °F - 10.9 °F 11% 29.99 in 10.0 mi West 6.9 mph - N/A   Clear
9:53 PM 63.0 °F - 10.0 °F 13% 30.00 in 10.0 mi West 4.6 mph - N/A   Clear
10:53 PM 54.0 °F - 18.0 °F 24% 30.02 in 10.0 mi Variable 4.6 mph - N/A   Clear
11:53 PM 51.1 °F - 23.0 °F 33% 30.00 in 10.0 mi North 5.8 mph - N/A   Clear